N8DNY-13 Weather Reports


Display with metric or nautical units.
time (UTC)temp
F
wind
direction
speed
MPH
gust
MPH
rain 1hr
in
rain 24hr
in
rain mn
in
humidity
%
barometer
mb
20260504045713 53 253 2.0 3.0 0.00 0.00 0.00 62 1013.6
20260504044233 53 268 4.0 8.0 0.00 0.00 0.00 62 1013.6
20260504042710 53 251 2.0 3.0 0.00 0.00 0.00 62 1013.6
20260504041210 53 234 0.0 1.0 0.00 0.00 0.00 62 1013.9
20260504035700 53 275 0.0 2.0 0.00 0.00 0.00 61 1014.1
20260504034211 52 264 1.0 2.0 0.00 0.00 0.00 63 1014.1
20260504032650 52 268 0.0 1.0 0.00 0.00 0.00 67 1014.5
20260504031200 52 278 0.0 1.0 0.00 0.00 0.00 67 1014.5
20260504025650 52 219 4.0 8.0 0.00 0.00 0.00 67 1014.6
20260504024130 52 245 3.0 4.0 0.00 0.00 0.00 68 1014.8
20260504022620 52 245 2.0 3.0 0.00 0.00 0.00 69 1014.9
20260504021111 52 265 2.0 3.0 0.00 0.00 0.00 69 1015.1
20260504015610 52 279 0.0 1.0 0.00 0.00 0.00 68 1015.1
20260504014100 52 76 2.0 5.0 0.00 0.00 0.00 68 1015.1
20260504012611 52 267 0.0 1.0 0.00 0.00 0.00 68 1014.9
20260504011050 53 282 2.0 3.0 0.00 0.00 0.00 67 1015.0
20260504005540 53 279 0.0 1.0 0.00 0.00 0.00 66 1015.1
20260504004039 53 274 0.0 0.0 0.00 0.00 0.00 65 1015.1
20260504002530 54 261 0.0 1.0 0.00 0.00 0.00 63 1015.2
20260504001020 54 254 1.0 1.0 0.00 0.00 0.00 62 1015.4
20260503235520 54 277 0.0 0.0 0.00 0.00 0.00 61 1015.5
20260503234010 55 144 3.0 5.0 0.00 0.00 0.00 59 1015.6
20260503232502 56 235 4.0 5.0 0.00 0.00 0.00 59 1015.5
20260503231000 57 246 1.0 2.0 0.00 0.00 0.00 57 1015.6
20260503225450 58 211 2.0 3.0 0.00 0.00 0.00 53 1015.4
20260503223942 60 244 5.0 8.0 0.00 0.00 0.00 50 1015.3
20260503222440 60 283 2.0 3.0 0.00 0.00 0.00 46 1015.3
20260503220930 61 203 4.0 5.0 0.00 0.00 0.00 42 1015.0
20260503215423 65 286 2.0 4.0 0.00 0.00 0.00 39 1015.1
20260503213920 62 282 1.0 2.0 0.00 0.00 0.00 42 1015.1
20260503212410 63 243 2.0 3.0 0.00 0.00 0.00 41 1015.3
20260503210904 64 249 1.0 2.0 0.00 0.00 0.00 39 1015.2
20260503205400 67 223 2.0 4.0 0.00 0.00 0.00 35 1015.2
20260503203850 66 243 2.0 3.0 0.00 0.00 0.00 36 1015.4
20260503202346 66 241 7.0 8.0 0.00 0.00 0.00 34 1015.4
20260503200905 67 277 0.0 1.0 0.00 0.00 0.00 36 1015.8
20260503195344 66 235 2.0 4.0 0.00 0.00 0.00 34 1015.8
20260503193843 66 267 4.0 5.0 0.00 0.00 0.00 34 1016.0
20260503192341 67 235 7.0 13.0 0.00 0.00 0.00 34 1016.2
20260503190840 66 256 3.0 5.0 0.00 0.00 0.00 35 1016.3
20260503185358 66 242 2.0 3.0 0.00 0.00 0.00 35 1016.6
20260503183838 67 250 5.0 10.0 0.00 0.00 0.00 35 1016.9
20260503182335 67 290 2.0 3.0 0.00 0.00 0.00 35 1017.0
20260503180835 66 221 1.0 2.0 0.00 0.00 0.00 35 1017.1
20260503175333 66 213 5.0 6.0 0.00 0.00 0.00 33 1017.5
20260503173830 67 275 3.0 6.0 0.00 0.00 0.00 32 1017.4
20260503172350 64 243 5.0 8.0 0.00 0.00 0.00 35 1017.9
20260503170830 64 193 4.0 9.0 0.00 0.00 0.00 37 1017.8
20260503131247 51 242 2.0 4.0 0.00 0.00 0.00 52 1019.7
20260503081126 36 270 0.0 0.0 0.00 0.00 0.00 74 1020.0
20260503072548 36 272 0.0 0.0 0.00 0.00 0.00 76 1020.1
20260503071047 36 272 0.0 0.0 0.00 0.00 0.00 76 1020.0